| time (UTC) | temp C | wind direction | speed KPH | gust KPH | rain 1hr cm | rain 24hr cm | rain mn cm | humidity % | barometer mb |
| 20260505214552 | 30 | 199 | 0.0 | 3.2 | 0.00 | 0.00 | 0.00 | 49 | 1001.6 |
| 20260505213016 | 30 | 228 | 1.6 | 9.7 | 0.00 | 0.00 | 0.00 | 52 | 1001.6 |
| 20260505211603 | 31 | 175 | 0.0 | 3.2 | 0.00 | 0.00 | 0.00 | 48 | 1001.7 |
| 20260505210032 | 30 | 175 | 0.0 | 4.8 | 0.00 | 0.00 | 0.00 | 47 | 1002.0 |
| 20260505204606 | 30 | 202 | 0.0 | 6.4 | 0.00 | 0.00 | 0.00 | 46 | 1002.2 |
| 20260505203022 | 29 | 192 | 0.0 | 4.8 | 0.00 | 0.00 | 0.00 | 49 | 1002.2 |
| 20260505201608 | 30 | 199 | 0.0 | 6.4 | 0.00 | 0.00 | 0.00 | 43 | 1002.4 |
| 20260505200024 | 30 | 229 | 0.0 | 8.0 | 0.00 | 0.00 | 0.00 | 49 | 1002.4 |
| 20260505194554 | 30 | 203 | 0.0 | 8.0 | 0.00 | 0.00 | 0.00 | 51 | 1002.5 |
| 20260505193018 | 30 | 206 | 0.0 | 4.8 | 0.00 | 0.00 | 0.00 | 46 | 1002.4 |
| 20260505191608 | 28 | 182 | 0.0 | 4.8 | 0.00 | 0.00 | 0.00 | 42 | 1002.5 |
| 20260505190018 | 28 | 203 | 0.0 | 6.4 | 0.00 | 0.00 | 0.00 | 43 | 1002.3 |
| 20260505184559 | 28 | 193 | 0.0 | 3.2 | 0.00 | 0.00 | 0.00 | 38 | 1002.6 |
| 20260505183024 | 28 | 260 | 1.6 | 6.4 | 0.00 | 0.00 | 0.00 | 31 | 1002.6 |
| 20260505181556 | 27 | 143 | 0.0 | 4.8 | 0.00 | 0.00 | 0.00 | 12 | 1002.8 |
| 20260505180020 | 27 | 211 | 1.6 | 8.0 | 0.00 | 0.00 | 0.00 | 13 | 1002.7 |
| 20260505174603 | 27 | 231 | 1.6 | 9.7 | 0.00 | 0.00 | 0.00 | 4 | 1002.7 |
| 20260505173033 | 26 | 227 | 0.0 | 6.4 | 0.00 | 0.00 | 0.00 | 1 | 1002.7 |
| 20260505171607 | 25 | 117 | 0.0 | 9.7 | 0.00 | 0.00 | 0.00 | 1 | 1002.8 |
| 20260505170030 | 25 | 102 | 0.0 | 6.4 | 0.00 | 0.00 | 0.00 | 1 | 1003.0 |
| 20260505164602 | 25 | 110 | 0.0 | 4.8 | 0.00 | 0.00 | 0.00 | 1 | 1002.8 |
| 20260505163019 | 25 | 93 | 0.0 | 3.2 | 0.00 | 0.00 | 0.00 | 1 | 1002.4 |
| 20260505161608 | 25 | 177 | 0.0 | 4.8 | 0.00 | 0.00 | 0.00 | 1 | 1003.0 |
| 20260505153022 | 24 | 163 | 0.0 | 6.4 | 0.00 | 0.00 | 0.00 | 1 | 1002.3 |
| 20260505151602 | 24 | 249 | 0.0 | 4.8 | 0.00 | 0.00 | 0.00 | 1 | 1002.6 |
| 20260505124510 | 22 | 78 | 1.6 | 6.4 | 0.00 | 0.00 | 0.00 | 1 | 1002.2 |
| 20260505123039 | 22 | 181 | 0.0 | 4.8 | 0.00 | 0.00 | 0.00 | 1 | 1002.2 |
| 20260505121506 | 22 | 41 | 0.0 | 4.8 | 0.00 | 0.00 | 0.00 | 1 | 1002.0 |
| 20260505120041 | 22 | 202 | 0.0 | 3.2 | 0.00 | 0.00 | 0.00 | 1 | 1001.8 |
| 20260505114508 | 21 | 111 | 0.0 | 4.8 | 0.00 | 0.00 | 0.00 | 1 | 1001.8 |
| 20260505113051 | 21 | 103 | 0.0 | 3.2 | 0.00 | 0.00 | 0.00 | 1 | 1001.8 |
| 20260505111508 | 22 | 122 | 0.0 | 3.2 | 0.00 | 0.00 | 0.00 | 1 | 1001.7 |
| 20260505101532 | 22 | 191 | 0.0 | 4.8 | 0.00 | 0.00 | 0.00 | 1 | 1001.7 |
| 20260505094530 | 21 | 203 | 0.0 | 8.0 | 0.00 | 0.00 | 0.00 | 1 | 1001.8 |
| 20260505093106 | 21 | 74 | 0.0 | 4.8 | 0.00 | 0.00 | 0.00 | 1 | 1001.8 |
| 20260505091533 | 21 | 97 | 0.0 | 8.0 | 0.00 | 0.00 | 0.00 | 1 | 1002.1 |
| 20260505090104 | 21 | 126 | 0.0 | 14.5 | 0.00 | 0.00 | 0.00 | 1 | 1002.1 |
| 20260505084515 | 22 | 79 | 0.0 | 3.2 | 0.00 | 0.00 | 0.00 | 1 | 1002.1 |
| 20260505083058 | 22 | 74 | 0.0 | 3.2 | 0.00 | 0.00 | 0.00 | 1 | 1002.2 |
| 20260505081511 | 22 | 201 | 0.0 | 4.8 | 0.00 | 0.00 | 0.00 | 1 | 1002.1 |
| 20260505080052 | 22 | 159 | 0.0 | 4.8 | 0.00 | 0.00 | 0.00 | 1 | 1002.3 |
| 20260505074518 | 22 | 216 | 0.0 | 4.8 | 0.00 | 0.00 | 0.00 | 1 | 1002.4 |
| 20260505073059 | 22 | 219 | 0.0 | 4.8 | 0.00 | 0.00 | 0.00 | 1 | 1002.7 |
| 20260505071522 | 22 | 312 | 0.0 | 3.2 | 0.00 | 0.00 | 0.00 | 1 | 1002.9 |
| 20260505070111 | 22 | 52 | 0.0 | 6.4 | 0.00 | 0.00 | 0.00 | 1 | 1003.0 |
| 20260505064540 | 22 | 108 | 1.6 | 12.9 | 0.00 | 0.00 | 0.00 | 1 | 1003.3 |
| 20260505063002 | 22 | 174 | 0.0 | 4.8 | 0.00 | 0.00 | 0.00 | 1 | 1003.4 |
| 20260505061541 | 22 | 93 | 0.0 | 11.3 | 0.00 | 0.00 | 0.00 | 1 | 1003.5 |
| 20260505060003 | 22 | 87 | 0.0 | 4.8 | 0.00 | 0.00 | 0.00 | 1 | 1003.4 |
| 20260505054546 | 22 | 104 | 1.6 | 8.0 | 0.00 | 0.00 | 0.00 | 1 | 1003.4 |
| 20260505053004 | 22 | 115 | 1.6 | 12.9 | 0.00 | 0.00 | 0.00 | 1 | 1003.7 |
| 20260505051545 | 22 | 93 | 0.0 | 4.8 | 0.00 | 0.00 | 0.00 | 1 | 1003.9 |
| 20260505041549 | 22 | 81 | 0.0 | 12.9 | 0.00 | 0.00 | 0.00 | 1 | 1004.0 |
| 20260505040016 | 22 | 102 | 1.6 | 9.7 | 0.00 | 0.00 | 0.00 | 1 | 1004.1 |
| 20260505034551 | 22 | 64 | 0.0 | 12.9 | 0.00 | 0.00 | 0.00 | 1 | 1004.1 |
| 20260505033022 | 22 | 106 | 1.6 | 9.7 | 0.00 | 0.00 | 0.00 | 2 | 1004.2 |
| 20260505031559 | 22 | 287 | 0.0 | 11.3 | 0.00 | 0.00 | 0.00 | 6 | 1004.2 |
| 20260505030008 | 23 | 56 | 1.6 | 6.4 | 0.00 | 0.00 | 0.00 | 9 | 1004.1 |
| 20260505024549 | 23 | 154 | 0.0 | 4.8 | 0.00 | 0.00 | 0.00 | 13 | 1004.0 |
| 20260505023105 | 23 | 131 | 0.0 | 12.9 | 0.00 | 0.00 | 0.00 | 16 | 1004.0 |
| 20260505021535 | 23 | 103 | 0.0 | 4.8 | 0.00 | 0.00 | 0.00 | 19 | 1003.9 |
| 20260505020110 | 23 | 130 | 0.0 | 6.4 | 0.00 | 0.00 | 0.00 | 21 | 1003.9 |
| 20260505014536 | 23 | 44 | 0.0 | 9.7 | 0.00 | 0.00 | 0.00 | 24 | 1003.9 |
| 20260505013104 | 23 | 347 | 0.0 | 8.0 | 0.00 | 0.00 | 0.00 | 28 | 1004.0 |
| 20260505011528 | 23 | 20 | 0.0 | 8.0 | 0.00 | 0.00 | 0.00 | 32 | 1004.0 |
| 20260505010105 | 24 | 100 | 0.0 | 9.7 | 0.00 | 0.00 | 0.00 | 36 | 1003.9 |
| 20260505004522 | 24 | 147 | 1.6 | 6.4 | 0.00 | 0.00 | 0.00 | 40 | 1003.9 |
| 20260505003057 | 25 | 104 | 0.0 | 6.4 | 0.00 | 0.00 | 0.00 | 41 | 1004.0 |
| 20260505001516 | 25 | 106 | 0.0 | 12.9 | 0.00 | 0.00 | 0.00 | 46 | 1004.2 |
| 20260505000055 | 25 | 14 | 0.0 | 4.8 | 0.00 | 0.00 | 0.00 | 46 | 1004.0 |
| 20260504234517 | 25 | 147 | 0.0 | 6.4 | 0.00 | 0.00 | 0.00 | 47 | 1004.0 |
| 20260504233057 | 25 | 99 | 1.6 | 8.0 | 0.00 | 0.00 | 0.00 | 49 | 1004.2 |
| 20260504231524 | 26 | 100 | 1.6 | 6.4 | 0.00 | 0.00 | 0.00 | 51 | 1004.3 |
| 20260504224536 | 26 | 94 | 1.6 | 12.9 | 0.00 | 0.00 | 0.00 | 52 | 1004.7 |
| 20260504223106 | 26 | 143 | 1.6 | 9.7 | 0.00 | 0.00 | 0.00 | 52 | 1004.6 |
| 20260504221524 | 26 | 41 | 1.6 | 14.5 | 0.00 | 0.00 | 0.00 | 52 | 1004.6 |
| 20260504220052 | 26 | 96 | 1.6 | 9.7 | 0.00 | 0.00 | 0.00 | 53 | 1004.7 |